Weather History for Martinsville, VA

Change the Weather History Date:

Thursday, July 25, 2013

  Actual Average (KGSO) Record (KGSO)
Temperature  
Mean Temperature 74 °F 78 °F  
Max Temperature 83 °F 88 °F 101 °F (1914)
Min Temperature 64 °F 69 °F 56 °F (1947)
Degree Days  
Heating Degree Days 0 0  
Month to date heating degree days 0  
Since 1 June heating degree days 6  
Since 1 July heating degree days 0  
Cooling Degree Days 8 14  
Month to date cooling degree days 344  
Year to date cooling degree days 810  
Since 1 June cooling degree days 651  
Growing Degree Days 24 (Base 50)    
Moisture  
Dew Point 64 °F    
Average Humidity 77    
Maximum Humidity 97    
Minimum Humidity 50    
Precipitation  
Precipitation 0.26 in 0.15 in 2.79 in (1926)
Month to date precipitation 3.54  
Year to date precipitation 23.97  
Sea Level Pressure  
Sea Level Pressure 30.01 in    
Wind  
Wind Speed 3 mph (ENE)    
Max Wind Speed 8 mph    
Max Gust Speed -    
Visibility 9 miles    
Events Rain , Thunderstorm    
T = Trace of Precipitation, MM = Missing Value Source: NWS Daily Summary

Daily Weather History Graph

Daily Weather History Graph

Search for Another Location

Airport:

Trip Planner

Search our weather history database for the weather conditions in past years. The results will help you decide how hot, cold, wet, or windy it might be!

Date:

Astronomy

Jul. 25, 2013 Rise Set
Actual Time 6:20 AM EDT 8:31 PM EDT
Civil Twilight 5:51 AM EDT 9:00 PM EDT
Nautical Twilight 5:16 AM EDT 9:36 PM EDT
Astronomical Twilight 4:37 AM EDT 10:14 PM EDT
Moon 10:19 PM EDT (7/25) 9:41 AM EDT (7/25)
Length of Visible Light 15h 09m
Length of Day
14h 11m
Waning Gibbous, 88% of the Moon is Illuminated
Jul 25
Waning Gibbous
Jul 29
Last Quarter
Aug 6
New
Aug 14
First Quarter
Aug 20
Full

Hourly Weather History & Observations

Time (EDT) Temp. Heat Index Dew Point Humidity Pressure Visibility Wind Dir Wind Speed Gust Speed Precip Events Conditions
12:15 AM 72.3 °F - 67.3 °F 84% 29.93 in 10.0 mi Calm Calm - N/A   Overcast
12:35 AM 73.0 °F - 68.0 °F 84% 29.95 in 10.0 mi ENE 6.9 mph - N/A   Overcast
12:55 AM 73.0 °F - 66.9 °F 81% 29.93 in 10.0 mi ENE 5.8 mph - N/A   Overcast
1:15 AM 72.9 °F - 67.1 °F 82% 29.93 in 10.0 mi NE 3.5 mph - N/A Rain Light Rain
1:35 AM 71.8 °F - 66.2 °F 83% 29.93 in 10.0 mi North 4.6 mph - N/A Rain Light Rain
1:55 AM 71.2 °F - 66.4 °F 85% 29.94 in 10.0 mi ENE 3.5 mph - N/A Rain Light Rain
2:15 AM 69.1 °F - 66.2 °F 91% 29.95 in 10.0 mi Calm Calm - 0.04 in Rain , Thunderstorm Light Thunderstorms and Rain
2:35 AM 68.2 °F - 66.7 °F 95% 29.96 in 2.5 mi SSW 3.5 mph - 0.07 in Rain , Thunderstorm Rain
2:55 AM 68.2 °F - 66.7 °F 95% 29.96 in 4.0 mi ESE 4.6 mph - 0.15 in Rain Rain
3:15 AM 68.0 °F - 66.4 °F 95% 29.95 in 3.0 mi Calm Calm - 0.07 in Rain , Thunderstorm Rain
3:35 AM 68.0 °F - 66.7 °F 96% 29.96 in 4.0 mi Calm Calm - 0.10 in Rain Light Rain
3:55 AM 67.1 °F - 65.3 °F 94% 29.95 in 7.0 mi Calm Calm - 0.11 in Rain Light Rain
4:15 AM 67.1 °F - 65.3 °F 94% 29.95 in 10.0 mi NNE 3.5 mph - N/A Rain , Thunderstorm Light Thunderstorms and Rain
4:35 AM 67.1 °F - 65.5 °F 95% 29.96 in 7.0 mi NNW 6.9 mph - N/A   Overcast
4:55 AM 66.6 °F - 64.8 °F 94% 29.96 in 10.0 mi North 5.8 mph - N/A   Mostly Cloudy
5:15 AM 66.2 °F - 63.5 °F 91% 29.97 in 10.0 mi North 4.6 mph - N/A   Scattered Clouds
5:35 AM 65.8 °F - 63.5 °F 92% 29.96 in 10.0 mi Calm Calm - N/A   Overcast
5:55 AM 66.2 °F - 63.1 °F 90% 29.95 in 10.0 mi North 3.5 mph - N/A   Overcast
6:15 AM 65.3 °F - 63.5 °F 94% 29.96 in 10.0 mi NNW 4.6 mph - N/A   Light Drizzle
6:35 AM 64.8 °F - 63.0 °F 94% 29.96 in 10.0 mi Calm Calm - N/A   Clear
6:55 AM 64.6 °F - 62.4 °F 93% 29.97 in 10.0 mi Calm Calm - N/A   Clear
7:15 AM 64.8 °F - 62.6 °F 93% 29.97 in 10.0 mi Calm Calm - N/A   Clear
7:35 AM 66.0 °F - 63.1 °F 90% 29.97 in 10.0 mi Calm Calm - N/A   Clear
7:55 AM 67.1 °F - 63.5 °F 88% 29.98 in 10.0 mi Calm Calm - N/A   Clear
8:15 AM 68.4 °F - 63.9 °F 85% 29.99 in 10.0 mi North 3.5 mph - N/A   Clear
8:35 AM 69.8 °F - 64.0 °F 82% 30.00 in 10.0 mi NNE 3.5 mph - N/A   Clear
8:55 AM 71.4 °F - 64.6 °F 79% 30.00 in 10.0 mi NNE 4.6 mph - N/A   Clear
9:15 AM 73.0 °F - 63.9 °F 73% 30.01 in 10.0 mi NE 8.1 mph - N/A   Clear
9:35 AM 73.9 °F - 64.6 °F 72% 30.01 in 10.0 mi NE 4.6 mph - N/A   Clear
9:55 AM 74.7 °F - 63.5 °F 68% 30.01 in 10.0 mi ENE 8.1 mph - N/A   Scattered Clouds
10:15 AM 73.6 °F - 63.3 °F 70% 30.02 in 10.0 mi NNE 3.5 mph - N/A   Overcast
10:35 AM 74.8 °F - 62.8 °F 66% 30.02 in 10.0 mi ENE 5.8 mph - N/A   Overcast
10:55 AM 74.7 °F - 61.5 °F 63% 30.02 in 10.0 mi ENE 6.9 mph - N/A   Mostly Cloudy
11:15 AM 74.5 °F - 61.2 °F 63% 30.03 in 10.0 mi ENE 8.1 mph - N/A   Overcast
11:35 AM 74.7 °F - 60.4 °F 61% 30.04 in 10.0 mi NNE 8.1 mph - N/A   Overcast
11:55 AM 74.3 °F - 60.1 °F 61% 30.04 in 10.0 mi ENE 4.6 mph - N/A   Overcast
12:15 PM 73.9 °F - 59.2 °F 60% 30.04 in 10.0 mi ENE 4.6 mph - N/A   Overcast
12:35 PM 75.2 °F - 59.9 °F 59% 30.04 in 10.0 mi ENE 5.8 mph - N/A   Overcast
12:55 PM 77.2 °F - 60.3 °F 56% 30.03 in 10.0 mi NE 6.9 mph - N/A   Scattered Clouds
1:15 PM 77.7 °F - 60.3 °F 55% 30.03 in 10.0 mi Calm Calm - N/A   Mostly Cloudy
1:35 PM 78.3 °F - 61.2 °F 56% 30.03 in 10.0 mi ENE 6.9 mph - N/A   Scattered Clouds
1:55 PM 78.4 °F - 61.2 °F 55% 30.03 in 10.0 mi ENE 5.8 mph - N/A   Clear
2:15 PM 79.5 °F - 62.1 °F 55% 30.02 in 10.0 mi East 6.9 mph - N/A   Clear
2:35 PM 80.1 °F 81.4 °F 62.4 °F 55% 30.02 in 10.0 mi ENE 5.8 mph - N/A   Clear
2:55 PM 80.4 °F 81.7 °F 62.8 °F 55% 30.02 in 10.0 mi NE 3.5 mph - N/A   Clear
3:15 PM 80.8 °F 82.0 °F 62.8 °F 54% 30.02 in 10.0 mi East 4.6 mph - N/A   Clear
3:35 PM 81.3 °F 82.3 °F 62.4 °F 52% 30.02 in 10.0 mi East 3.5 mph - N/A   Scattered Clouds
3:55 PM 82.6 °F 83.4 °F 62.4 °F 50% 30.02 in 10.0 mi Calm Calm - N/A   Scattered Clouds
4:15 PM 82.8 °F 83.8 °F 62.8 °F 51% 30.02 in 10.0 mi ESE 3.5 mph - N/A   Scattered Clouds
4:35 PM 82.6 °F 83.6 °F 62.6 °F 51% 30.02 in 10.0 mi East 4.6 mph - N/A   Scattered Clouds
4:55 PM 83.1 °F 84.2 °F 63.5 °F 51% 30.01 in 10.0 mi ESE 3.5 mph - N/A   Clear
5:15 PM 83.7 °F 85.1 °F 64.6 °F 52% 30.02 in 10.0 mi SE 4.6 mph - N/A   Clear
5:35 PM 81.9 °F 83.2 °F 63.9 °F 54% 30.02 in 10.0 mi ESE 4.6 mph - N/A   Scattered Clouds
5:55 PM 80.2 °F 81.8 °F 63.5 °F 57% 30.01 in 10.0 mi ESE 4.6 mph - N/A   Scattered Clouds
6:15 PM 79.9 °F - 64.0 °F 58% 30.01 in 10.0 mi Calm Calm - N/A   Scattered Clouds
6:35 PM 78.8 °F - 64.0 °F 60% 30.02 in 10.0 mi ESE 4.6 mph - N/A   Mostly Cloudy
6:55 PM 78.1 °F - 66.2 °F 67% 30.02 in 10.0 mi Calm Calm - N/A   Mostly Cloudy
7:15 PM 78.3 °F - 65.5 °F 65% 30.03 in 10.0 mi Calm Calm - N/A   Clear
7:35 PM 76.6 °F - 68.7 °F 76% 30.03 in 10.0 mi Calm Calm - N/A   Clear
7:55 PM 73.0 °F - 68.5 °F 86% 30.04 in 10.0 mi Calm Calm - N/A   Scattered Clouds
8:15 PM 71.8 °F - 68.7 °F 90% 30.04 in 10.0 mi Calm Calm - N/A   Scattered Clouds
8:35 PM 70.0 °F - 67.8 °F 93% 30.05 in 10.0 mi Calm Calm - N/A   Scattered Clouds
8:55 PM 69.1 °F - 67.3 °F 94% 30.05 in 10.0 mi Calm Calm - N/A   Mostly Cloudy
9:15 PM 68.0 °F - 66.2 °F 94% 30.05 in 10.0 mi Calm Calm - N/A   Scattered Clouds
9:35 PM 67.3 °F - 65.8 °F 95% 30.07 in 7.0 mi Calm Calm - N/A   Clear
9:55 PM 67.1 °F - 65.5 °F 95% 30.07 in 7.0 mi Calm Calm - N/A   Scattered Clouds
10:15 PM 67.1 °F - 66.0 °F 96% 30.08 in 7.0 mi Calm Calm - N/A   Mostly Cloudy
10:35 PM 67.8 °F - 66.4 °F 95% 30.09 in 7.0 mi Calm Calm - N/A   Mostly Cloudy
10:55 PM 66.6 °F - 65.3 °F 96% 30.09 in 5.0 mi Calm Calm - N/A   Scattered Clouds
11:15 PM 66.2 °F - 64.9 °F 96% 30.09 in 5.0 mi Calm Calm - N/A   Clear
11:35 PM 66.0 °F - 65.1 °F 97% 30.10 in 5.0 mi Calm Calm - N/A   Scattered Clouds
11:55 PM 66.2 °F - 64.9 °F 96% 30.10 in 7.0 mi Calm Calm - N/A   Mostly Cloudy